• In Belarus
  • List of Countries
  • For 7 days
  • Water Temperature
  • Weather Map
  • Weather Widgets
  • user-avatar
    Login

    Hourly Weather Igls

    Today, 8 April, Wednesday

    Time Temperature Precipitation Wind Pressure Humidity
    00:00 +7°C° 0 mm 2 mps 692 mmHg 78%
    01:00 +7°C° 0 mm 2 mps 692 mmHg 78%
    02:00 +7°C° 0 mm 2 mps 691 mmHg 78%
    03:00 +6°C° 0 mm 2 mps 691 mmHg 78%
    04:00 +6°C° 0 mm 2 mps 691 mmHg 78%
    05:00 +7°C° 0 mm 2 mps 691 mmHg 76%
    06:00 +9°C° 0 mm 1 mps 691 mmHg 73%
    07:00 +9°C° 0 mm 1 mps 691 mmHg 71%
    08:00 +12°C° 0 mm 1 mps 691 mmHg 64%
    09:00 +14°C° 0 mm 1 mps 691 mmHg 57%
    10:00 +16°C° 0 mm 0 mps 691 mmHg 49%
    11:00 +19°C° 0 mm 1 mps 691 mmHg 47%
    12:00 +19°C° 0 mm 1 mps 691 mmHg 46%
    13:00 +20°C° 0 mm 1 mps 691 mmHg 44%
    14:00 +19°C° 0 mm 1 mps 690 mmHg 47%
    15:00 +19°C° 0 mm 1 mps 690 mmHg 50%
    16:00 +18°C° 0 mm 1 mps 689 mmHg 53%
    17:00 +15°C° 0.1 mm 1 mps 689 mmHg 64%
    18:00 +13°C° 0.1 mm 1 mps 689 mmHg 75%
    19:00 +10°C° 0.1 mm 0 mps 688 mmHg 86%
    20:00 +9°C° 0.1 mm 0 mps 688 mmHg 88%
    21:00 +9°C° 0.1 mm 0 mps 689 mmHg 90%
    22:00 +8°C° 0.1 mm 0 mps 689 mmHg 92%
    23:00 +8°C° 0.1 mm 0 mps 689 mmHg 92%

    Tomorrow, 9 April, Thursday

    Time Temperature Precipitation Wind Pressure Humidity
    00:00 +8°C° 0.1 mm 0 mps 689 mmHg 93%
    01:00 +9°C° 0.1 mm 1 mps 689 mmHg 94%
    02:00 +9°C° 0.1 mm 1 mps 689 mmHg 93%
    03:00 +9°C° 0.1 mm 1 mps 689 mmHg 93%
    04:00 +9°C° 0.1 mm 1 mps 688 mmHg 93%
    05:00 +9°C° 0.1 mm 1 mps 689 mmHg 93%
    06:00 +10°C° 0.1 mm 1 mps 689 mmHg 92%
    07:00 +10°C° 0.1 mm 1 mps 689 mmHg 92%
    08:00 +12°C° 0.1 mm 1 mps 689 mmHg 85%
    09:00 +13°C° 0.1 mm 1 mps 689 mmHg 78%
    10:00 +15°C° 0.1 mm 1 mps 689 mmHg 72%
    11:00 +15°C° 0.1 mm 1 mps 689 mmHg 68%
    12:00 +16°C° 0.1 mm 1 mps 689 mmHg 64%
    13:00 +16°C° 0.1 mm 1 mps 689 mmHg 60%
    14:00 +16°C° 0.1 mm 2 mps 689 mmHg 63%
    15:00 +16°C° 0.1 mm 2 mps 688 mmHg 65%
    16:00 +15°C° 0.1 mm 2 mps 688 mmHg 68%
    17:00 +14°C° 0.1 mm 2 mps 688 mmHg 75%
    18:00 +12°C° 0.1 mm 1 mps 688 mmHg 82%
    19:00 +11°C° 0.1 mm 1 mps 688 mmHg 89%
    20:00 +11°C° 0 mm 1 mps 688 mmHg 89%
    21:00 +10°C° 0 mm 1 mps 689 mmHg 90%
    22:00 +9°C° 0 mm 0 mps 689 mmHg 91%
    23:00 +8°C° 0 mm 0 mps 689 mmHg 91%

    Day after tomorrow, 10 April, Friday

    Time Temperature Precipitation Wind Pressure Humidity
    00:00 +8°C° 0 mm 1 mps 689 mmHg 92%
    01:00 +8°C° 0 mm 1 mps 689 mmHg 93%
    02:00 +7°C° 0 mm 1 mps 688 mmHg 92%
    03:00 +7°C° 0 mm 1 mps 688 mmHg 92%
    04:00 +7°C° 0 mm 1 mps 688 mmHg 92%
    05:00 +7°C° 0 mm 0 mps 688 mmHg 89%
    06:00 +8°C° 0 mm 0 mps 689 mmHg 85%
    07:00 +9°C° 0 mm 0 mps 689 mmHg 82%
    08:00 +11°C° 0 mm 0 mps 689 mmHg 74%
    09:00 +13°C° 0 mm 0 mps 690 mmHg 65%
    10:00 +16°C° 0 mm 1 mps 690 mmHg 57%
    11:00 +18°C° 0 mm 1 mps 690 mmHg 53%
    12:00 +19°C° 0 mm 1 mps 690 mmHg 49%
    13:00 +20°C° 0 mm 1 mps 690 mmHg 45%
    14:00 +20°C° 0 mm 1 mps 689 mmHg 45%
    15:00 +19°C° 0 mm 1 mps 689 mmHg 46%
    16:00 +18°C° 0 mm 2 mps 688 mmHg 47%
    17:00 +16°C° 0 mm 1 mps 688 mmHg 59%
    18:00 +13°C° 0 mm 1 mps 687 mmHg 70%
    19:00 +11°C° 0 mm 1 mps 687 mmHg 82%
    20:00 +10°C° 0 mm 1 mps 687 mmHg 84%
    21:00 +9°C° 0 mm 0 mps 687 mmHg 87%
    22:00 +8°C° 0 mm 0 mps 688 mmHg 89%
    23:00 +8°C° 0 mm 0 mps 688 mmHg 89%

    11 April, Saturday

    Time Temperature Precipitation Wind Pressure Humidity
    00:00 +7°C° 0 mm 0 mps 687 mmHg 90%
    01:00 +7°C° 0 mm 0 mps 687 mmHg 90%
    02:00 +7°C° 0 mm 0 mps 687 mmHg 90%
    03:00 +8°C° 0 mm 1 mps 687 mmHg 90%
    04:00 +8°C° 0 mm 1 mps 688 mmHg 91%
    05:00 +9°C° 0 mm 1 mps 688 mmHg 87%
    06:00 +9°C° 0 mm 0 mps 688 mmHg 84%
    07:00 +10°C° 0 mm 0 mps 688 mmHg 80%
    08:00 +12°C° 0 mm 0 mps 689 mmHg 72%
    09:00 +15°C° 0 mm 1 mps 689 mmHg 63%
    10:00 +18°C° 0 mm 1 mps 689 mmHg 55%
    11:00 +19°C° 0 mm 1 mps 689 mmHg 52%
    12:00 +19°C° 0 mm 1 mps 689 mmHg 49%
    13:00 +20°C° 0 mm 1 mps 689 mmHg 47%
    14:00 +19°C° 0.1 mm 1 mps 688 mmHg 51%
    15:00 +19°C° 0.1 mm 1 mps 688 mmHg 55%
    16:00 +18°C° 0.1 mm 1 mps 687 mmHg 59%
    17:00 +16°C° 0.1 mm 1 mps 687 mmHg 68%
    18:00 +14°C° 0.1 mm 1 mps 687 mmHg 77%
    19:00 +12°C° 0.1 mm 1 mps 686 mmHg 85%
    20:00 +12°C° 0 mm 1 mps 687 mmHg 87%
    21:00 +12°C° 0 mm 1 mps 687 mmHg 88%
    22:00 +11°C° 0 mm 1 mps 687 mmHg 90%
    23:00 +11°C° 0 mm 1 mps 687 mmHg 90%

    12 April, Sunday

    Time Temperature Precipitation Wind Pressure Humidity
    00:00 +10°C° 0 mm 1 mps 687 mmHg 91%
    01:00 +10°C° 0 mm 1 mps 687 mmHg 91%
    02:00 +10°C° 0 mm 1 mps 686 mmHg 92%
    03:00 +10°C° 0 mm 1 mps 686 mmHg 92%
    04:00 +10°C° 0 mm 1 mps 686 mmHg 92%
    05:00 +10°C° 0 mm 1 mps 686 mmHg 90%
    06:00 +11°C° 0 mm 1 mps 686 mmHg 88%
    07:00 +12°C° 0 mm 1 mps 686 mmHg 85%
    08:00 +12°C° 0.2 mm 1 mps 685 mmHg 83%
    09:00 +13°C° 0.2 mm 1 mps 685 mmHg 82%
    10:00 +14°C° 0.2 mm 1 mps 685 mmHg 80%
    11:00 +15°C° 0.4 mm 1 mps 685 mmHg 75%
    12:00 +16°C° 0.4 mm 1 mps 684 mmHg 71%
    13:00 +18°C° 0.4 mm 1 mps 684 mmHg 66%
    14:00 +18°C° 0.9 mm 1 mps 683 mmHg 67%
    15:00 +18°C° 0.9 mm 1 mps 683 mmHg 68%
    16:00 +16°C° 0.9 mm 2 mps 682 mmHg 69%
    17:00 +15°C° 1 mm 1 mps 682 mmHg 76%
    18:00 +13°C° 1 mm 1 mps 681 mmHg 83%
    19:00 +12°C° 1 mm 1 mps 681 mmHg 89%
    20:00 +11°C° 0.9 mm 1 mps 681 mmHg 91%
    21:00 +11°C° 0.9 mm 1 mps 681 mmHg 92%
    22:00 +10°C° 0.9 mm 1 mps 681 mmHg 94%
    23:00 +10°C° 0.4 mm 1 mps 681 mmHg 94%

    13 April, Monday

    Time Temperature Precipitation Wind Pressure Humidity
    00:00 +9°C° 0.4 mm 1 mps 681 mmHg 94%
    01:00 +9°C° 0.4 mm 1 mps 681 mmHg 94%
    02:00 +9°C° 0.1 mm 1 mps 680 mmHg 94%
    03:00 +9°C° 0.1 mm 1 mps 680 mmHg 94%
    04:00 +9°C° 0.1 mm 1 mps 680 mmHg 93%
    05:00 +9°C° 0 mm 1 mps 680 mmHg 92%
    06:00 +9°C° 0 mm 1 mps 680 mmHg 91%
    07:00 +10°C° 0 mm 1 mps 681 mmHg 89%
    08:00 +11°C° 0.1 mm 1 mps 681 mmHg 83%
    09:00 +13°C° 0.1 mm 1 mps 681 mmHg 76%
    10:00 +14°C° 0.1 mm 1 mps 681 mmHg 69%
    11:00 +14°C° 0.4 mm 1 mps 681 mmHg 68%
    12:00 +15°C° 0.4 mm 1 mps 681 mmHg 66%
    13:00 +15°C° 0.4 mm 2 mps 681 mmHg 64%
    14:00 +15°C° 0.7 mm 2 mps 680 mmHg 66%
    15:00 +14°C° 0.7 mm 2 mps 680 mmHg 69%
    16:00 +14°C° 0.7 mm 2 mps 680 mmHg 72%
    17:00 +12°C° 0.6 mm 1 mps 679 mmHg 78%
    18:00 +11°C° 0.6 mm 1 mps 679 mmHg 85%
    19:00 +10°C° 0.6 mm 1 mps 679 mmHg 91%
    20:00 +10°C° 0.4 mm 1 mps 679 mmHg 93%
    21:00 +9°C° 0.4 mm 1 mps 680 mmHg 94%
    22:00 +9°C° 0.4 mm 1 mps 680 mmHg 95%
    23:00 +7°C° 1.2 mm 2 mps 680 mmHg 96%
    Show more